Time,TemperatureF,DewpointF,PressureIn,WindDirection,WindDirectionDegrees,WindSpeedMPH,WindSpeedGustMPH,Humidity,HourlyPrecipIn,Conditions,Clouds,dailyrainin,SoftwareType,DateUTC
2013-01-06 00:00:00,20.6,16.3,29.90,WNW,288,3.0,3.0,83,0.00,,,0.00,Wunderground v.1.15,2013-01-06 06:00:00,
2013-01-06 00:10:00,20.5,16.2,29.91,West,281,4.0,6.0,83,0.00,,,0.00,Wunderground v.1.15,2013-01-06 06:10:00,
2013-01-06 00:15:00,20.6,16.3,29.91,WNW,286,6.0,6.0,83,0.00,,,0.00,Wunderground v.1.15,2013-01-06 06:15:00,
2013-01-06 00:25:00,20.5,16.2,29.91,West,280,7.0,9.0,83,0.00,,,0.00,Wunderground v.1.15,2013-01-06 06:25:00,
2013-01-06 00:35:00,20.3,16.0,29.91,WNW,286,6.0,9.0,83,0.00,,,0.00,Wunderground v.1.15,2013-01-06 06:35:00,
2013-01-06 00:45:00,20.2,16.1,29.91,WSW,248,6.0,6.0,84,0.00,,,0.00,Wunderground v.1.15,2013-01-06 06:45:00,
2013-01-06 00:50:00,20.2,16.1,29.91,West,273,5.0,6.0,84,0.00,,,0.00,Wunderground v.1.15,2013-01-06 06:50:00,
2013-01-06 01:00:00,20.0,15.9,29.91,West,264,5.0,5.0,84,0.00,,,0.00,Wunderground v.1.15,2013-01-06 07:00:00,
2013-01-06 01:05:00,19.9,15.8,29.90,WNW,287,4.0,5.0,84,0.00,,,0.00,Wunderground v.1.15,2013-01-06 07:05:00,
2013-01-06 01:15:00,19.7,15.9,29.91,WNW,296,5.0,5.0,85,0.00,,,0.00,Wunderground v.1.15,2013-01-06 07:15:00,
2013-01-06 01:20:00,19.7,15.9,29.91,WNW,284,5.0,5.0,85,0.00,,,0.00,Wunderground v.1.15,2013-01-06 07:20:00,
2013-01-06 01:30:00,19.5,15.7,29.91,WNW,302,4.0,6.0,85,0.00,,,0.00,Wunderground v.1.15,2013-01-06 07:30:00,
2013-01-06 01:35:00,19.5,15.7,29.91,WNW,298,4.0,8.0,85,0.00,,,0.00,Wunderground v.1.15,2013-01-06 07:35:00,
2013-01-06 01:45:00,19.6,16.1,29.91,WNW,298,5.0,5.0,86,0.00,,,0.00,Wunderground v.1.15,2013-01-06 07:45:00,
2013-01-06 01:50:00,19.5,16.0,29.92,West,279,4.0,4.0,86,0.00,,,0.00,Wunderground v.1.15,2013-01-06 07:50:00,
2013-01-06 02:00:00,19.4,15.9,29.92,WNW,290,5.0,5.0,86,0.00,,,0.00,Wunderground v.1.15,2013-01-06 08:00:00,
2013-01-06 02:10:00,19.5,16.0,29.93,NW,304,5.0,9.0,86,0.00,,,0.00,Wunderground v.1.15,2013-01-06 08:10:00,
2013-01-06 02:15:00,19.5,16.0,29.94,West,281,5.0,9.0,86,0.00,,,0.00,Wunderground v.1.15,2013-01-06 08:15:00,
2013-01-06 02:25:00,19.6,16.1,29.94,West,280,4.0,6.0,86,0.00,,,0.00,Wunderground v.1.15,2013-01-06 08:25:00,
2013-01-06 02:30:00,19.7,16.2,29.94,WNW,294,5.0,5.0,86,0.00,,,0.00,Wunderground v.1.15,2013-01-06 08:30:00,
2013-01-06 02:40:00,19.9,16.4,29.95,WNW,286,5.0,7.0,86,0.00,,,0.00,Wunderground v.1.15,2013-01-06 08:40:00,
2013-01-06 02:50:00,20.1,16.6,29.95,West,281,7.0,7.0,86,0.00,,,0.00,Wunderground v.1.15,2013-01-06 08:50:00,
2013-01-06 02:55:00,20.2,16.7,29.95,NW,323,7.0,7.0,86,0.00,,,0.00,Wunderground v.1.15,2013-01-06 08:55:00,
2013-01-06 03:00:00,20.5,17.2,29.95,WNW,282,6.0,10.0,87,0.00,,,0.00,Wunderground v.1.15,2013-01-06 09:00:00,
2013-01-06 03:10:00,20.7,17.4,29.95,WNW,290,6.0,7.0,87,0.00,,,0.00,Wunderground v.1.15,2013-01-06 09:10:00,
2013-01-06 03:15:00,20.7,17.4,29.95,WNW,300,6.0,7.0,87,0.00,,,0.00,Wunderground v.1.15,2013-01-06 09:15:00,
2013-01-06 03:25:00,20.9,18.2,29.96,West,269,7.0,10.0,89,0.00,,,0.00,Wunderground v.1.15,2013-01-06 09:25:00,
2013-01-06 03:35:00,21.1,18.4,29.96,WNW,293,7.0,7.0,89,0.00,,,0.00,Wunderground v.1.15,2013-01-06 09:35:00,
2013-01-06 03:45:00,21.2,18.7,29.96,WNW,294,6.0,10.0,90,0.00,,,0.00,Wunderground v.1.15,2013-01-06 09:45:00,
2013-01-06 03:50:00,21.2,18.7,29.96,NNW,327,6.0,6.0,90,0.00,,,0.00,Wunderground v.1.15,2013-01-06 09:50:00,
2013-01-06 04:00:00,21.3,18.8,29.96,NW,306,6.0,8.0,90,0.00,,,0.00,Wunderground v.1.15,2013-01-06 10:00:00,
2013-01-06 04:05:00,21.4,19.2,29.96,NNW,334,7.0,8.0,91,0.00,,,0.00,Wunderground v.1.15,2013-01-06 10:05:00,
2013-01-06 04:15:00,21.4,19.2,29.96,WNW,290,7.0,7.0,91,0.00,,,0.00,Wunderground v.1.15,2013-01-06 10:15:00,
2013-01-06 04:20:00,21.6,19.4,29.96,NW,309,7.0,7.0,91,0.00,,,0.00,Wunderground v.1.15,2013-01-06 10:20:00,
2013-01-06 04:30:00,21.7,19.5,29.96,NW,319,7.0,7.0,91,0.00,,,0.00,Wunderground v.1.15,2013-01-06 10:30:00,
2013-01-06 04:35:00,21.7,19.5,29.96,WNW,300,7.0,10.0,91,0.00,,,0.00,Wunderground v.1.15,2013-01-06 10:35:00,
2013-01-06 04:45:00,21.8,19.6,29.96,West,281,7.0,7.0,91,0.00,,,0.00,Wunderground v.1.15,2013-01-06 10:45:00,
2013-01-06 04:50:00,22.0,19.8,29.97,WNW,302,7.0,7.0,91,0.00,,,0.00,Wunderground v.1.15,2013-01-06 10:50:00,
2013-01-06 05:00:00,22.1,19.6,29.97,NW,319,8.0,8.0,90,0.00,,,0.00,Wunderground v.1.15,2013-01-06 11:00:00,
2013-01-06 05:05:00,22.0,19.5,29.97,NW,316,7.0,8.0,90,0.00,,,0.00,Wunderground v.1.15,2013-01-06 11:05:00,
2013-01-06 05:15:00,22.0,19.5,29.98,WNW,293,6.0,7.0,90,0.00,,,0.00,Wunderground v.1.15,2013-01-06 11:15:00,
2013-01-06 05:20:00,21.9,19.4,29.98,WNW,297,6.0,6.0,90,0.00,,,0.00,Wunderground v.1.15,2013-01-06 11:20:00,
2013-01-06 05:30:00,21.7,19.5,29.98,West,275,6.0,6.0,91,0.00,,,0.00,Wunderground v.1.15,2013-01-06 11:30:00,
2013-01-06 05:35:00,21.8,19.6,29.98,WNW,298,6.0,6.0,91,0.00,,,0.00,Wunderground v.1.15,2013-01-06 11:35:00,
2013-01-06 05:45:00,21.9,19.4,29.99,West,277,6.0,6.0,90,0.00,,,0.00,Wunderground v.1.15,2013-01-06 11:45:00,
2013-01-06 05:55:00,21.8,19.3,29.99,WNW,293,5.0,6.0,90,0.00,,,0.00,Wunderground v.1.15,2013-01-06 11:55:00,
2013-01-06 06:00:00,21.7,19.2,30.00,WNW,292,6.0,6.0,90,0.00,,,0.00,Wunderground v.1.15,2013-01-06 12:00:00,
2013-01-06 06:10:00,21.3,19.1,30.01,West,259,7.0,11.0,91,0.00,,,0.00,Wunderground v.1.15,2013-01-06 12:10:00,
2013-01-06 06:20:00,21.2,19.0,30.01,WNW,302,8.0,8.0,91,0.00,,,0.00,Wunderground v.1.15,2013-01-06 12:20:00,
2013-01-06 06:25:00,21.1,18.9,30.01,WNW,284,7.0,13.0,91,0.00,,,0.00,Wunderground v.1.15,2013-01-06 12:25:00,
2013-01-06 06:35:00,21.8,19.8,30.02,NW,318,7.0,10.0,92,0.00,,,0.00,Wunderground v.1.15,2013-01-06 12:35:00,
2013-01-06 06:45:00,22.5,20.3,30.02,NW,313,7.0,9.0,91,0.00,,,0.00,Wunderground v.1.15,2013-01-06 12:45:00,
2013-01-06 06:55:00,23.0,20.8,30.03,West,281,8.0,10.0,91,0.00,,,0.00,Wunderground v.1.15,2013-01-06 12:55:00,
2013-01-06 07:00:00,23.2,21.0,30.03,NW,304,8.0,8.0,91,0.00,,,0.00,Wunderground v.1.15,2013-01-06 13:00:00,
2013-01-06 07:10:00,23.5,21.3,30.04,NW,307,8.0,8.0,91,0.00,,,0.00,Wunderground v.1.15,2013-01-06 13:10:00,
2013-01-06 07:15:00,23.7,21.2,30.04,WNW,301,8.0,8.0,90,0.00,,,0.00,Wunderground v.1.15,2013-01-06 13:15:00,
2013-01-06 07:25:00,23.8,21.3,30.04,WNW,291,7.0,8.0,90,0.00,,,0.00,Wunderground v.1.15,2013-01-06 13:25:00,
2013-01-06 07:35:00,23.8,21.3,30.05,WNW,293,6.0,7.0,90,0.00,,,0.00,Wunderground v.1.15,2013-01-06 13:35:00,
2013-01-06 07:40:00,23.8,21.3,30.05,West,281,6.0,7.0,90,0.00,,,0.00,Wunderground v.1.15,2013-01-06 13:40:00,
2013-01-06 07:50:00,23.9,21.4,30.06,WNW,296,5.0,8.0,90,0.00,,,0.00,Wunderground v.1.15,2013-01-06 13:50:00,
2013-01-06 08:00:00,23.9,21.4,30.06,NW,311,5.0,5.0,90,0.00,,,0.00,Wunderground v.1.15,2013-01-06 14:00:00,
2013-01-06 08:10:00,23.8,21.0,30.07,WNW,300,4.0,4.0,89,0.00,,,0.00,Wunderground v.1.15,2013-01-06 14:10:00,
2013-01-06 08:20:00,23.8,21.3,30.07,NW,325,4.0,4.0,90,0.00,,,0.00,Wunderground v.1.15,2013-01-06 14:20:00,
2013-01-06 08:30:00,24.1,21.6,30.07,NW,313,4.0,6.0,90,0.00,,,0.00,Wunderground v.1.15,2013-01-06 14:30:00,
2013-01-06 08:35:00,24.2,21.7,30.08,NW,304,4.0,6.0,90,0.00,,,0.00,Wunderground v.1.15,2013-01-06 14:35:00,
2013-01-06 08:45:00,24.4,21.6,30.08,NW,315,4.0,4.0,89,0.00,,,0.00,Wunderground v.1.15,2013-01-06 14:45:00,
2013-01-06 08:55:00,24.5,21.7,30.09,WNW,289,5.0,5.0,89,0.00,,,0.00,Wunderground v.1.15,2013-01-06 14:55:00,
2013-01-06 09:00:00,24.7,21.9,30.09,West,277,4.0,7.0,89,0.00,,,0.00,Wunderground v.1.15,2013-01-06 15:00:00,
2013-01-06 09:10:00,25.0,21.9,30.09,West,276,6.0,9.0,88,0.00,,,0.00,Wunderground v.1.15,2013-01-06 15:10:00,
2013-01-06 09:20:00,25.1,22.0,30.09,WNW,297,6.0,6.0,88,0.00,,,0.00,Wunderground v.1.15,2013-01-06 15:20:00,
2013-01-06 09:25:00,25.2,22.1,30.10,WNW,287,5.0,6.0,88,0.00,,,0.00,Wunderground v.1.15,2013-01-06 15:25:00,
2013-01-06 09:35:00,25.3,22.0,30.11,West,269,6.0,9.0,87,0.00,,,0.00,Wunderground v.1.15,2013-01-06 15:35:00,
2013-01-06 09:45:00,25.4,22.1,30.12,West,281,6.0,6.0,87,0.00,,,0.00,Wunderground v.1.15,2013-01-06 15:45:00,
2013-01-06 09:55:00,25.6,22.3,30.13,WNW,290,6.0,11.0,87,0.00,,,0.00,Wunderground v.1.15,2013-01-06 15:55:00,
2013-01-06 10:00:00,25.7,22.1,30.13,WNW,294,6.0,6.0,86,0.00,,,0.00,Wunderground v.1.15,2013-01-06 16:00:00,
2013-01-06 10:10:00,25.8,21.9,30.13,West,269,6.0,9.0,85,0.00,,,0.00,Wunderground v.1.15,2013-01-06 16:10:00,
2013-01-06 10:20:00,26.0,22.1,30.13,WNW,284,6.0,6.0,85,0.00,,,0.00,Wunderground v.1.15,2013-01-06 16:20:00,
2013-01-06 10:25:00,26.0,22.1,30.13,WNW,288,6.0,8.0,85,0.00,,,0.00,Wunderground v.1.15,2013-01-06 16:25:00,
2013-01-06 10:30:00,26.0,22.1,30.13,WNW,282,7.0,7.0,85,0.00,,,0.00,Wunderground v.1.15,2013-01-06 16:30:00,
2013-01-06 10:40:00,26.1,21.9,30.14,WNW,299,6.0,6.0,84,0.00,,,0.00,Wunderground v.1.15,2013-01-06 16:40:00,
2013-01-06 10:45:00,26.1,21.9,30.14,NW,314,6.0,6.0,84,0.00,,,0.00,Wunderground v.1.15,2013-01-06 16:45:00,
2013-01-06 10:55:00,26.2,22.0,30.14,WNW,296,6.0,9.0,84,0.00,,,0.00,Wunderground v.1.15,2013-01-06 16:55:00,
2013-01-06 11:00:00,26.2,22.0,30.14,WNW,288,7.0,7.0,84,0.00,,,0.00,Wunderground v.1.15,2013-01-06 17:00:00,
2013-01-06 11:10:00,26.2,22.0,30.14,WNW,302,6.0,8.0,84,0.00,,,0.00,Wunderground v.1.15,2013-01-06 17:10:00,
2013-01-06 11:15:00,26.1,21.9,30.14,West,277,7.0,8.0,84,0.00,,,0.00,Wunderground v.1.15,2013-01-06 17:15:00,
2013-01-06 11:20:00,25.9,21.7,30.15,NW,304,7.0,9.0,84,0.00,,,0.00,Wunderground v.1.15,2013-01-06 17:20:00,
2013-01-06 11:30:00,25.7,21.5,30.14,WNW,284,7.0,7.0,84,0.00,,,0.00,Wunderground v.1.15,2013-01-06 17:30:00,
2013-01-06 11:40:00,25.7,21.8,30.13,West,277,5.0,5.0,85,0.00,,,0.00,Wunderground v.1.15,2013-01-06 17:40:00,
2013-01-06 11:45:00,25.7,21.5,30.13,WNW,291,5.0,10.0,84,0.00,,,0.00,Wunderground v.1.15,2013-01-06 17:45:00,
2013-01-06 11:55:00,25.6,21.4,30.13,North,355,5.0,10.0,84,0.00,,,0.00,Wunderground v.1.15,2013-01-06 17:55:00,
2013-01-06 12:00:00,25.6,21.4,30.13,NNW,342,5.0,5.0,84,0.00,,,0.00,Wunderground v.1.15,2013-01-06 18:00:00,
2013-01-06 12:10:00,25.6,21.4,30.13,WNW,294,5.0,5.0,84,0.00,,,0.00,Wunderground v.1.15,2013-01-06 18:10:00,
2013-01-06 12:15:00,25.7,21.5,30.14,WNW,285,4.0,7.0,84,0.00,,,0.00,Wunderground v.1.15,2013-01-06 18:15:00,
2013-01-06 12:25:00,25.6,21.4,30.14,WNW,300,5.0,6.0,84,0.00,,,0.00,Wunderground v.1.15,2013-01-06 18:25:00,
2013-01-06 12:30:00,25.6,21.4,30.14,NW,306,5.0,5.0,84,0.00,,,0.00,Wunderground v.1.15,2013-01-06 18:30:00,
2013-01-06 12:40:00,25.6,21.2,30.14,WNW,289,4.0,4.0,83,0.00,,,0.00,Wunderground v.1.15,2013-01-06 18:40:00,
2013-01-06 12:45:00,25.8,21.3,30.14,WNW,294,3.0,4.0,83,0.00,,,0.00,Wunderground v.1.15,2013-01-06 18:45:00,
2013-01-06 12:55:00,26.0,21.5,30.13,West,277,3.0,3.0,83,0.00,,,0.00,Wunderground v.1.15,2013-01-06 18:55:00,
2013-01-06 13:00:00,26.1,21.4,30.14,West,259,3.0,3.0,82,0.00,,,0.00,Wunderground v.1.15,2013-01-06 19:00:00,
2013-01-06 13:10:00,26.5,21.7,30.14,WNW,285,3.0,3.0,82,0.00,,,0.00,Wunderground v.1.15,2013-01-06 19:10:00,
2013-01-06 13:15:00,26.4,21.7,30.14,WNW,301,4.0,4.0,82,0.00,,,0.00,Wunderground v.1.15,2013-01-06 19:15:00,
2013-01-06 13:25:00,26.2,21.5,30.14,NNW,327,4.0,4.0,82,0.00,,,0.00,Wunderground v.1.15,2013-01-06 19:25:00,
2013-01-06 13:35:00,26.1,21.4,30.14,WNW,290,3.0,5.0,82,0.00,,,0.00,Wunderground v.1.15,2013-01-06 19:35:00,
2013-01-06 13:45:00,26.1,21.4,30.14,West,279,4.0,4.0,82,0.00,,,0.00,Wunderground v.1.15,2013-01-06 19:45:00,
2013-01-06 13:55:00,26.1,21.4,30.15,West,277,4.0,4.0,82,0.00,,,0.00,Wunderground v.1.15,2013-01-06 19:55:00,
2013-01-06 14:10:00,25.9,21.2,30.16,West,271,5.0,5.0,82,0.00,,,0.00,Wunderground v.1.15,2013-01-06 20:10:00,
2013-01-06 14:15:00,26.1,21.4,30.16,WSW,255,4.0,6.0,82,0.00,,,0.00,Wunderground v.1.15,2013-01-06 20:15:00,
2013-01-06 14:25:00,25.9,21.2,30.16,West,273,4.0,5.0,82,0.00,,,0.00,Wunderground v.1.15,2013-01-06 20:25:00,
2013-01-06 14:35:00,25.6,20.9,30.17,WNW,292,6.0,6.0,82,0.00,,,0.00,Wunderground v.1.15,2013-01-06 20:35:00,
2013-01-06 14:45:00,25.7,21.0,30.17,West,271,4.0,5.0,82,0.00,,,0.00,Wunderground v.1.15,2013-01-06 20:45:00,
2013-01-06 14:55:00,25.5,20.5,30.17,West,275,4.0,4.0,81,0.00,,,0.00,Wunderground v.1.15,2013-01-06 20:55:00,
2013-01-06 15:00:00,25.5,20.8,30.18,WNW,292,3.0,3.0,82,0.00,,,0.00,Wunderground v.1.15,2013-01-06 21:00:00,
2013-01-06 15:10:00,25.8,21.1,30.18,WNW,290,2.0,5.0,82,0.00,,,0.00,Wunderground v.1.15,2013-01-06 21:10:00,
2013-01-06 15:15:00,26.1,21.1,30.18,West,281,3.0,5.0,81,0.00,,,0.00,Wunderground v.1.15,2013-01-06 21:15:00,
2013-01-06 15:25:00,26.0,20.7,30.19,West,276,4.0,4.0,80,0.00,,,0.00,Wunderground v.1.15,2013-01-06 21:25:00,
2013-01-06 15:30:00,25.7,20.1,30.19,WNW,288,3.0,3.0,79,0.00,,,0.00,Wunderground v.1.15,2013-01-06 21:30:00,
2013-01-06 15:40:00,25.5,20.2,30.20,West,278,4.0,4.0,80,0.00,,,0.00,Wunderground v.1.15,2013-01-06 21:40:00,
2013-01-06 15:50:00,25.3,20.0,30.20,WNW,287,3.0,3.0,80,0.00,,,0.00,Wunderground v.1.15,2013-01-06 21:50:00,
2013-01-06 15:55:00,25.1,19.8,30.20,West,267,3.0,4.0,80,0.00,,,0.00,Wunderground v.1.15,2013-01-06 21:55:00,
2013-01-06 16:00:00,24.9,19.6,30.21,West,279,3.0,3.0,80,0.00,,,0.00,Wunderground v.1.15,2013-01-06 22:00:00,
2013-01-06 16:10:00,24.6,19.3,30.21,West,275,3.0,3.0,80,0.00,,,0.00,Wunderground v.1.15,2013-01-06 22:10:00,
2013-01-06 16:15:00,24.5,19.2,30.21,West,270,2.0,3.0,80,0.00,,,0.00,Wunderground v.1.15,2013-01-06 22:15:00,
2013-01-06 16:25:00,24.2,19.2,30.21,West,267,1.0,2.0,81,0.00,,,0.00,Wunderground v.1.15,2013-01-06 22:25:00,
2013-01-06 16:30:00,24.3,19.3,30.21,West,267,1.0,2.0,81,0.00,,,0.00,Wunderground v.1.15,2013-01-06 22:30:00,
2013-01-06 16:40:00,24.0,18.7,30.21,West,271,1.0,1.0,80,0.00,,,0.00,Wunderground v.1.15,2013-01-06 22:40:00,
2013-01-06 16:50:00,23.5,18.5,30.21,West,271,0.0,0.0,81,0.00,,,0.00,Wunderground v.1.15,2013-01-06 22:50:00,
2013-01-06 17:00:00,22.9,17.9,30.21,West,271,0.0,0.0,81,0.00,,,0.00,Wunderground v.1.15,2013-01-06 23:00:00,
2013-01-06 17:10:00,22.4,17.7,30.21,West,271,0.0,0.0,82,0.00,,,0.00,Wunderground v.1.15,2013-01-06 23:10:00,
2013-01-06 17:15:00,22.0,17.6,30.21,West,271,0.0,0.0,83,0.00,,,0.00,Wunderground v.1.15,2013-01-06 23:15:00,
2013-01-06 17:20:00,21.7,17.6,30.21,West,271,0.0,0.0,84,0.00,,,0.00,Wunderground v.1.15,2013-01-06 23:20:00,
2013-01-06 17:30:00,21.3,17.5,30.21,West,271,0.0,0.0,85,0.00,,,0.00,Wunderground v.1.15,2013-01-06 23:30:00,
2013-01-06 17:40:00,21.0,17.2,30.21,West,271,0.0,0.0,85,0.00,,,0.00,Wunderground v.1.15,2013-01-06 23:40:00,
2013-01-06 17:50:00,20.6,16.8,30.21,West,271,0.0,0.0,85,0.00,,,0.00,Wunderground v.1.15,2013-01-06 23:50:00,
2013-01-06 17:55:00,20.3,16.8,30.21,West,271,0.0,0.0,86,0.00,,,0.00,Wunderground v.1.15,2013-01-06 23:55:00,
2013-01-06 18:00:00,20.2,17.0,30.20,West,271,0.0,0.0,87,0.00,,,0.00,Wunderground v.1.15,2013-01-07 00:00:00,
2013-01-06 18:10:00,19.9,16.7,30.21,West,271,0.0,0.0,87,0.00,,,0.00,Wunderground v.1.15,2013-01-07 00:10:00,
2013-01-06 18:15:00,19.5,16.3,30.21,West,271,0.0,0.0,87,0.00,,,0.00,Wunderground v.1.15,2013-01-07 00:15:00,
2013-01-06 18:25:00,19.0,15.8,30.22,West,271,0.0,0.0,87,0.00,,,0.00,Wunderground v.1.15,2013-01-07 00:25:00,
2013-01-06 18:35:00,18.7,15.7,30.23,West,271,0.0,0.0,88,0.00,,,0.00,Wunderground v.1.15,2013-01-07 00:35:00,
2013-01-06 18:45:00,18.6,15.6,30.23,West,271,0.0,0.0,88,0.00,,,0.00,Wunderground v.1.15,2013-01-07 00:45:00,
2013-01-06 18:50:00,18.3,15.3,30.24,West,271,0.0,0.0,88,0.00,,,0.00,Wunderground v.1.15,2013-01-07 00:50:00,
2013-01-06 19:00:00,18.0,15.0,30.23,West,271,0.0,0.0,88,0.00,,,0.00,Wunderground v.1.15,2013-01-07 01:00:00,
2013-01-06 19:10:00,18.0,15.0,30.23,West,271,0.0,0.0,88,0.00,,,0.00,Wunderground v.1.15,2013-01-07 01:10:00,
2013-01-06 19:20:00,17.9,14.9,30.22,West,271,0.0,0.0,88,0.00,,,0.00,Wunderground v.1.15,2013-01-07 01:20:00,
2013-01-06 19:30:00,17.4,14.5,30.22,West,271,0.0,0.0,88,0.00,,,0.00,Wunderground v.1.15,2013-01-07 01:30:00,
2013-01-06 19:35:00,17.2,14.3,30.22,West,271,0.0,0.0,88,0.00,,,0.00,Wunderground v.1.15,2013-01-07 01:35:00,
2013-01-06 19:45:00,16.8,13.9,30.22,West,271,0.0,0.0,88,0.00,,,0.00,Wunderground v.1.15,2013-01-07 01:45:00,
2013-01-06 19:55:00,16.5,13.8,30.22,West,271,0.0,0.0,89,0.00,,,0.00,Wunderground v.1.15,2013-01-07 01:55:00,
2013-01-06 20:00:00,16.3,13.4,30.22,West,271,0.0,0.0,88,0.00,,,0.00,Wunderground v.1.15,2013-01-07 02:00:00,
2013-01-06 20:10:00,15.9,13.0,30.22,West,271,0.0,0.0,88,0.00,,,0.00,Wunderground v.1.15,2013-01-07 02:10:00,
2013-01-06 20:20:00,15.3,12.6,30.22,West,271,0.0,0.0,89,0.00,,,0.00,Wunderground v.1.15,2013-01-07 02:20:00,
2013-01-06 20:30:00,15.1,12.7,30.22,West,271,0.0,0.0,90,0.00,,,0.00,Wunderground v.1.15,2013-01-07 02:30:00,
2013-01-06 20:40:00,15.3,12.9,30.22,West,271,0.0,1.0,90,0.00,,,0.00,Wunderground v.1.15,2013-01-07 02:40:00,
2013-01-06 20:45:00,15.3,12.9,30.22,West,271,0.0,1.0,90,0.00,,,0.00,Wunderground v.1.15,2013-01-07 02:45:00,
2013-01-06 20:55:00,15.0,12.6,30.22,West,271,0.0,0.0,90,0.00,,,0.00,Wunderground v.1.15,2013-01-07 02:55:00,
2013-01-06 21:00:00,14.8,12.4,30.22,West,271,0.0,0.0,90,0.00,,,0.00,Wunderground v.1.15,2013-01-07 03:00:00,
2013-01-06 21:05:00,14.6,12.2,30.22,West,271,0.0,1.0,90,0.00,,,0.00,Wunderground v.1.15,2013-01-07 03:05:00,
2013-01-06 21:15:00,14.5,12.1,30.22,West,271,0.0,0.0,90,0.00,,,0.00,Wunderground v.1.15,2013-01-07 03:15:00,
2013-01-06 21:20:00,14.4,12.0,30.22,West,271,0.0,0.0,90,0.00,,,0.00,Wunderground v.1.15,2013-01-07 03:20:00,
2013-01-06 21:30:00,14.4,12.0,30.22,West,271,0.0,0.0,90,0.00,,,0.00,Wunderground v.1.15,2013-01-07 03:30:00,
2013-01-06 21:40:00,14.6,12.2,30.22,West,271,0.0,1.0,90,0.00,,,0.00,Wunderground v.1.15,2013-01-07 03:40:00,
2013-01-06 21:45:00,14.8,12.4,30.22,West,271,1.0,2.0,90,0.00,,,0.00,Wunderground v.1.15,2013-01-07 03:45:00,
2013-01-06 21:55:00,14.9,12.2,30.22,SSW,199,1.0,2.0,89,0.00,,,0.00,Wunderground v.1.15,2013-01-07 03:55:00,
2013-01-06 22:00:00,15.0,12.3,30.22,SSW,199,1.0,1.0,89,0.00,,,0.00,Wunderground v.1.15,2013-01-07 04:00:00,
2013-01-06 22:10:00,14.8,11.9,30.21,South,172,1.0,2.0,88,0.00,,,0.00,Wunderground v.1.15,2013-01-07 04:10:00,
2013-01-06 22:20:00,14.5,11.6,30.22,South,187,1.0,1.0,88,0.00,,,0.00,Wunderground v.1.15,2013-01-07 04:20:00,
2013-01-06 22:25:00,14.6,11.9,30.21,South,187,1.0,3.0,89,0.00,,,0.00,Wunderground v.1.15,2013-01-07 04:25:00,
2013-01-06 22:35:00,14.5,11.9,30.21,South,187,2.0,2.0,89,0.00,,,0.00,Wunderground v.1.15,2013-01-07 04:35:00,
2013-01-06 22:40:00,14.4,11.5,30.22,South,187,2.0,2.0,88,0.00,,,0.00,Wunderground v.1.15,2013-01-07 04:40:00,
2013-01-06 22:50:00,14.1,11.5,30.22,South,187,1.0,1.0,89,0.00,,,0.00,Wunderground v.1.15,2013-01-07 04:50:00,
2013-01-06 22:55:00,13.9,11.3,30.22,South,187,1.0,1.0,89,0.00,,,0.00,Wunderground v.1.15,2013-01-07 04:55:00,
2013-01-06 23:00:00,13.8,11.2,30.22,South,187,1.0,1.0,89,0.00,,,0.00,Wunderground v.1.15,2013-01-07 05:00:00,
2013-01-06 23:05:00,13.6,11.0,30.21,South,187,1.0,1.0,89,0.00,,,0.00,Wunderground v.1.15,2013-01-07 05:05:00,
2013-01-06 23:10:00,13.3,10.7,30.21,South,187,1.0,1.0,89,0.00,,,0.00,Wunderground v.1.15,2013-01-07 05:10:00,
2013-01-06 23:15:00,13.0,10.4,30.21,South,187,1.0,1.0,89,0.00,,,0.00,Wunderground v.1.15,2013-01-07 05:15:00,
2013-01-06 23:20:00,12.8,10.2,30.21,South,187,0.0,1.0,89,0.00,,,0.00,Wunderground v.1.15,2013-01-07 05:20:00,
2013-01-06 23:25:00,12.7,10.3,30.20,South,187,1.0,1.0,90,0.00,,,0.00,Wunderground v.1.15,2013-01-07 05:25:00,
2013-01-06 23:30:00,12.6,10.2,30.20,South,187,1.0,1.0,90,0.00,,,0.00,Wunderground v.1.15,2013-01-07 05:30:00,
2013-01-06 23:40:00,12.7,10.6,30.20,South,187,1.0,1.0,91,0.00,,,0.00,Wunderground v.1.15,2013-01-07 05:40:00,
2013-01-06 23:50:00,12.7,10.6,30.19,South,187,1.0,1.0,91,0.00,,,0.00,Wunderground v.1.15,2013-01-07 05:50:00,